Weather Roundup
Issued by NWS Springfield, MO

Home | Current Version | Previous Version | Text Only | Print | Product List | Glossary On
Versions: 1 2 3 4 5 6 7 8 9 10 11 12 13 14 15 16 17 18 19 20 21 22 23 24 25 26 27 28 29 30 31 32 33 34 35 36 37 38 39 40 41 42 43 44 45 46 47 48 49 50
000
NZUS99 KSGF 260357
HRRSGF

HOURLY WEATHER
NATIONAL WEATHER SERVICE SPRINGFIELD MO
1100 PM CDT SUN JUN 25 2017

......SGF CWA......

CITY           SKY/WX    TMP DP  RH WIND       PRES   REMARKS
SPRINGFIELD    CLOUDY    69  55  60 NE5       30.23R
JOPLIN         CLOUDY    69  55  60 E3        30.23S
WEST PLAINS    CLEAR     68  54  60 N3        30.23S
ROLLA          CLOUDY    67  49  52 NW7       30.22R

......SURROUNDING SGF CWA......

CITY           SKY/WX    TMP DP  RH WIND       PRES   REMARKS
CHANUTE          N/A    N/A N/A N/A MISG      30.24R
PARSONS        PTCLDY    65  57  75 CALM      30.25R
COFFEYVILLE    MOCLDY    68  55  63 NE6       30.23R
EMPORIA        MOCLDY    60  56  86 CALM      30.25R
HARRISON AR    PTCLDY    65  60  84 SW3       30.24R

......KANSAS AND MISSOURI......

CITY           SKY/WX    TMP DP  RH WIND       PRES   REMARKS
KANSAS CTY INT CLEAR     55  51  86 SW5       30.24R
SEDALIA        CLEAR     59  54  83 NW5       30.23S
ST JOSEPH      CLEAR     56  52  86 CALM      30.24R
ST LOUIS       PTCLDY    70  47  43 NW3       30.19S
WICHITA        CLOUDY    63  54  72 E8        30.24R
TOPEKA         CLEAR     57  56  96 CALM      30.24R
OLATHE         CLEAR     58  53  84 CALM      30.24S

......TENNESSEE......

CITY           SKY/WX    TMP DP  RH WIND       PRES   REMARKS
MEMPHIS        NOT AVBL
NASHVILLE      CLEAR     66  55  67 S5        30.18F

......ARKANSAS.......

CITY           SKY/WX    TMP DP  RH WIND       PRES   REMARKS
FAYETTEVILLE   CLOUDY    65  62  90 CALM      30.22S
FT SMITH       CLEAR     75  59  57 E3        30.17S
LITTLE ROCK    PTCLDY    67  62  84 S3        30.20R

......OKLAHOMA.......

CITY           SKY/WX    TMP DP  RH WIND       PRES   REMARKS
TULSA          MOCLDY    78  59  51 NE6       30.18R
PONCA CITY     CLEAR     68  55  63 E9        30.20R
MCALESTER      PTCLDY    76  59  55 E6        30.18R
OKLAHOMA CITY  CLOUDY    70  50  49 E9        30.18R

......IOWA............

CITY           SKY/WX    TMP DP  RH WIND       PRES   REMARKS
DES MOINES     NOT AVBL
QUAD CITIES    CLEAR     56  50  80 CALM      30.16R

......ILLINOIS........

CITY           SKY/WX    TMP DP  RH WIND       PRES   REMARKS
QUINCY         NOT AVBL
CHICAGO        MOCLDY    62  49  62 W9        30.11R




USA.gov is the U.S. government's official web portal to all federal, state and local government web resources and services.